• In Deutschland
  • Länderverzeichnis
  • Für 7 Tage
  • Wassertemperatur
  • Satellitenkarten
  • Wetterkarte
  • Widgets
  • user-avatar
    Anmelden

    Stündliche Wetter Piúma

    Heute, 18 Juli, Mittwoch

    Zeit Temperatur Niederschläge Wind Luftdruck Luftfeuchtigkeit
    00:00 +21°C° 0 mm 3 m/S 765 mmHg 93%
    01:00 +21°C° 0 mm 3 m/S 765 mmHg 93%
    02:00 +21°C° 0 mm 3 m/S 765 mmHg 93%
    03:00 +20°C° 0 mm 3 m/S 764 mmHg 92%
    04:00 +20°C° 0 mm 2 m/S 764 mmHg 92%
    05:00 +20°C° 0 mm 2 m/S 764 mmHg 92%
    06:00 +20°C° 0 mm 2 m/S 764 mmHg 92%
    07:00 +21°C° 0 mm 2 m/S 765 mmHg 85%
    08:00 +24°C° 0 mm 2 m/S 765 mmHg 78%
    09:00 +26°C° 0 mm 2 m/S 765 mmHg 69%
    10:00 +27°C° 0 mm 2 m/S 765 mmHg 64%
    11:00 +29°C° 0 mm 3 m/S 765 mmHg 59%
    12:00 +30°C° 0 mm 3 m/S 764 mmHg 54%
    13:00 +29°C° 0 mm 4 m/S 764 mmHg 57%
    14:00 +29°C° 0 mm 4 m/S 764 mmHg 60%
    15:00 +28°C° 0 mm 4 m/S 763 mmHg 64%
    16:00 +27°C° 0 mm 4 m/S 763 mmHg 71%
    17:00 +25°C° 0 mm 4 m/S 763 mmHg 78%
    18:00 +23°C° 0 mm 4 m/S 763 mmHg 86%
    19:00 +23°C° 0 mm 4 m/S 763 mmHg 88%
    20:00 +22°C° 0 mm 4 m/S 764 mmHg 90%
    21:00 +22°C° 0 mm 4 m/S 764 mmHg 92%
    22:00 +21°C° 0 mm 4 m/S 764 mmHg 92%
    23:00 +21°C° 0 mm 4 m/S 764 mmHg 91%

    Morgen, 19 Juli, Donnerstag

    Zeit Temperatur Niederschläge Wind Luftdruck Luftfeuchtigkeit
    00:00 +21°C° 0 mm 3 m/S 764 mmHg 91%
    01:00 +21°C° 0 mm 3 m/S 764 mmHg 91%
    02:00 +20°C° 0 mm 3 m/S 764 mmHg 91%
    03:00 +20°C° 0 mm 3 m/S 764 mmHg 91%
    04:00 +20°C° 0 mm 3 m/S 764 mmHg 91%
    05:00 +19°C° 0 mm 3 m/S 763 mmHg 91%
    06:00 +19°C° 0 mm 3 m/S 763 mmHg 90%
    07:00 +21°C° 0 mm 3 m/S 764 mmHg 82%
    08:00 +24°C° 0 mm 3 m/S 764 mmHg 74%
    09:00 +26°C° 0 mm 3 m/S 764 mmHg 66%
    10:00 +28°C° 0 mm 3 m/S 764 mmHg 60%
    11:00 +29°C° 0 mm 3 m/S 764 mmHg 54%
    12:00 +32°C° 0 mm 4 m/S 763 mmHg 49%
    13:00 +30°C° 0 mm 4 m/S 763 mmHg 51%
    14:00 +30°C° 0 mm 4 m/S 762 mmHg 53%
    15:00 +29°C° 0 mm 5 m/S 762 mmHg 56%
    16:00 +28°C° 0 mm 5 m/S 762 mmHg 63%
    17:00 +26°C° 0 mm 5 m/S 762 mmHg 71%
    18:00 +23°C° 0 mm 4 m/S 762 mmHg 78%
    19:00 +22°C° 0 mm 4 m/S 763 mmHg 81%
    20:00 +22°C° 0 mm 4 m/S 763 mmHg 84%
    21:00 +21°C° 0 mm 4 m/S 764 mmHg 87%
    22:00 +21°C° 0 mm 4 m/S 764 mmHg 88%
    23:00 +20°C° 0 mm 4 m/S 764 mmHg 89%

    übermorgen, 20 Juli, Freitag

    Zeit Temperatur Niederschläge Wind Luftdruck Luftfeuchtigkeit
    00:00 +20°C° 0 mm 4 m/S 764 mmHg 90%
    01:00 +20°C° 0 mm 3 m/S 763 mmHg 90%
    02:00 +20°C° 0 mm 3 m/S 763 mmHg 91%
    03:00 +19°C° 0 mm 3 m/S 763 mmHg 91%
    04:00 +19°C° 0 mm 3 m/S 763 mmHg 91%
    05:00 +19°C° 0 mm 3 m/S 763 mmHg 91%
    06:00 +19°C° 0 mm 3 m/S 763 mmHg 92%
    07:00 +21°C° 0 mm 3 m/S 763 mmHg 83%
    08:00 +24°C° 0 mm 3 m/S 763 mmHg 74%
    09:00 +26°C° 0 mm 3 m/S 764 mmHg 65%
    10:00 +28°C° 0 mm 3 m/S 764 mmHg 59%
    11:00 +29°C° 0 mm 3 m/S 763 mmHg 54%
    12:00 +30°C° 0 mm 4 m/S 763 mmHg 48%
    13:00 +30°C° 0 mm 4 m/S 762 mmHg 51%
    14:00 +30°C° 0 mm 5 m/S 762 mmHg 53%
    15:00 +30°C° 0 mm 5 m/S 761 mmHg 55%
    16:00 +28°C° 0 mm 5 m/S 761 mmHg 64%
    17:00 +26°C° 0 mm 5 m/S 761 mmHg 73%
    18:00 +23°C° 0 mm 5 m/S 762 mmHg 81%
    19:00 +23°C° 0 mm 5 m/S 762 mmHg 83%
    20:00 +22°C° 0 mm 5 m/S 762 mmHg 84%
    21:00 +21°C° 0 mm 4 m/S 763 mmHg 85%
    22:00 +21°C° 0 mm 4 m/S 763 mmHg 86%
    23:00 +21°C° 0 mm 4 m/S 763 mmHg 86%

    21 Juli, Samstag

    Zeit Temperatur Niederschläge Wind Luftdruck Luftfeuchtigkeit
    00:00 +21°C° 0 mm 4 m/S 763 mmHg 87%
    01:00 +20°C° 0 mm 4 m/S 763 mmHg 87%
    02:00 +20°C° 0 mm 4 m/S 763 mmHg 87%
    03:00 +20°C° 0 mm 3 m/S 762 mmHg 88%
    04:00 +20°C° 0 mm 3 m/S 762 mmHg 87%
    05:00 +20°C° 0 mm 3 m/S 763 mmHg 87%
    06:00 +19°C° 0 mm 3 m/S 763 mmHg 86%
    07:00 +22°C° 0 mm 3 m/S 763 mmHg 77%
    08:00 +25°C° 0 mm 3 m/S 763 mmHg 67%
    09:00 +27°C° 0 mm 4 m/S 764 mmHg 57%
    10:00 +29°C° 0 mm 4 m/S 763 mmHg 52%
    11:00 +30°C° 0 mm 4 m/S 763 mmHg 46%
    12:00 +33°C° 0 mm 4 m/S 762 mmHg 41%
    13:00 +33°C° 0 mm 5 m/S 762 mmHg 42%
    14:00 +32°C° 0 mm 5 m/S 761 mmHg 43%
    15:00 +32°C° 0 mm 5 m/S 761 mmHg 45%
    16:00 +29°C° 0 mm 5 m/S 761 mmHg 55%
    17:00 +27°C° 0 mm 5 m/S 761 mmHg 65%
    18:00 +25°C° 0 mm 5 m/S 761 mmHg 75%
    19:00 +23°C° 0 mm 5 m/S 762 mmHg 76%
    20:00 +23°C° 0 mm 5 m/S 762 mmHg 78%
    21:00 +22°C° 0 mm 4 m/S 763 mmHg 80%
    22:00 +22°C° 0 mm 4 m/S 763 mmHg 81%
    23:00 +22°C° 0 mm 4 m/S 763 mmHg 81%

    22 Juli, Sonntag

    Zeit Temperatur Niederschläge Wind Luftdruck Luftfeuchtigkeit
    00:00 +21°C° 0 mm 4 m/S 763 mmHg 82%
    01:00 +21°C° 0 mm 4 m/S 762 mmHg 83%
    02:00 +21°C° 0 mm 3 m/S 762 mmHg 84%
    03:00 +21°C° 0 mm 3 m/S 762 mmHg 84%
    04:00 +20°C° 0 mm 3 m/S 762 mmHg 86%
    05:00 +20°C° 0 mm 2 m/S 763 mmHg 87%
    06:00 +20°C° 0 mm 2 m/S 763 mmHg 89%
    07:00 +23°C° 0 mm 2 m/S 764 mmHg 82%
    08:00 +25°C° 0 mm 2 m/S 764 mmHg 74%
    09:00 +26°C° 0 mm 2 m/S 765 mmHg 67%
    10:00 +28°C° 0 mm 2 m/S 765 mmHg 63%
    11:00 +29°C° 0 mm 2 m/S 764 mmHg 58%
    12:00 +30°C° 0 mm 2 m/S 764 mmHg 54%
    13:00 +29°C° 0 mm 2 m/S 764 mmHg 58%
    14:00 +29°C° 0 mm 2 m/S 763 mmHg 62%
    15:00 +28°C° 0 mm 2 m/S 763 mmHg 66%
    16:00 +26°C° 0,1 mm 2 m/S 763 mmHg 74%
    17:00 +25°C° 0,1 mm 2 m/S 764 mmHg 83%
    18:00 +23°C° 0,1 mm 2 m/S 764 mmHg 92%
    19:00 +23°C° 0 mm 2 m/S 764 mmHg 93%
    20:00 +23°C° 0 mm 2 m/S 765 mmHg 94%
    21:00 +21°C° 0 mm 2 m/S 765 mmHg 95%
    22:00 +21°C° 0 mm 2 m/S 765 mmHg 95%
    23:00 +21°C° 0 mm 2 m/S 765 mmHg 95%

    23 Juli, Montag

    Zeit Temperatur Niederschläge Wind Luftdruck Luftfeuchtigkeit
    00:00 +20°C° 0 mm 2 m/S 765 mmHg 95%
    01:00 +20°C° 0 mm 2 m/S 765 mmHg 95%
    02:00 +20°C° 0 mm 2 m/S 764 mmHg 94%
    03:00 +20°C° 0 mm 2 m/S 764 mmHg 94%
    04:00 +20°C° 0 mm 2 m/S 765 mmHg 94%
    05:00 +19°C° 0 mm 2 m/S 765 mmHg 94%
    06:00 +19°C° 0 mm 2 m/S 765 mmHg 94%
    07:00 +21°C° 0 mm 2 m/S 765 mmHg 86%
    08:00 +24°C° 0 mm 2 m/S 766 mmHg 78%
    09:00 +26°C° 0 mm 1 m/S 766 mmHg 70%
    10:00 +27°C° 0 mm 2 m/S 766 mmHg 64%
    11:00 +29°C° 0 mm 2 m/S 765 mmHg 57%
    12:00 +30°C° 0 mm 3 m/S 765 mmHg 51%
    13:00 +30°C° 0 mm 3 m/S 764 mmHg 54%
    14:00 +29°C° 0 mm 4 m/S 764 mmHg 57%
    15:00 +29°C° 0 mm 4 m/S 763 mmHg 60%
    16:00 +27°C° 0,4 mm 4 m/S 764 mmHg 69%
    17:00 +26°C° 0,4 mm 4 m/S 764 mmHg 79%
    18:00 +23°C° 0,4 mm 4 m/S 764 mmHg 88%
    19:00 +23°C° 0,2 mm 4 m/S 765 mmHg 89%
    20:00 +22°C° 0,2 mm 4 m/S 765 mmHg 91%
    21:00 +22°C° 0,2 mm 4 m/S 765 mmHg 92%
    22:00 +22°C° 0 mm 4 m/S 765 mmHg 92%
    23:00 +22°C° 0 mm 4 m/S 765 mmHg 92%
    Mehr zeigen